| time (UTC) | temp F | wind direction | speed MPH | gust MPH | rain 1hr in | rain 24hr in | rain mn in | humidity % | barometer mb |
| 20260903152223 | 82 | 263 | 2.0 | 4.0 | 0.00 | 0.00 | 0.00 | 89 | 1014.3 |
| 20260903151722 | 82 | 292 | 1.0 | 3.0 | 0.00 | 0.00 | 0.00 | 89 | 1014.4 |
| 20260903151218 | 82 | 284 | 0.0 | 2.0 | 0.00 | 0.00 | 0.00 | 89 | 1014.3 |
| 20260903150713 | 82 | 295 | 1.0 | 4.0 | 0.00 | 0.00 | 0.00 | 89 | 1014.2 |
| 20260903150207 | 81 | 324 | 2.0 | 4.0 | 0.00 | 0.00 | 0.00 | 89 | 1014.1 |
| 20260903145702 | 82 | 230 | 4.0 | 4.0 | 0.00 | 0.00 | 0.00 | 89 | 1014.1 |
| 20260903145157 | 82 | 310 | 1.0 | 2.0 | 0.00 | 0.00 | 0.00 | 89 | 1014.4 |
| 20260903144656 | 81 | 340 | 2.0 | 3.0 | 0.00 | 0.00 | 0.00 | 89 | 1014.2 |
| 20260903144152 | 82 | 316 | 3.0 | 5.0 | 0.00 | 0.00 | 0.00 | 89 | 1014.3 |
| 20260903143648 | 82 | 311 | 2.0 | 3.0 | 0.00 | 0.00 | 0.00 | 89 | 1014.3 |
| 20260903143143 | 82 | 326 | 1.0 | 3.0 | 0.00 | 0.00 | 0.00 | 89 | 1014.2 |
| 20260903142639 | 81 | 284 | 1.0 | 4.0 | 0.00 | 0.00 | 0.00 | 89 | 1014.2 |
| 20260903142136 | 81 | 317 | 0.0 | 3.0 | 0.00 | 0.00 | 0.00 | 90 | 1014.1 |
| 20260903141631 | 81 | 280 | 1.0 | 2.0 | 0.00 | 0.00 | 0.00 | 90 | 1014.3 |
| 20260903141125 | 80 | 276 | 1.0 | 3.0 | 0.00 | 0.00 | 0.00 | 90 | 1014.0 |
| 20260903140622 | 80 | 240 | 0.0 | 1.0 | 0.00 | 0.00 | 0.00 | 91 | 1014.3 |
| 20260903140117 | 80 | 347 | 2.0 | 3.0 | 0.00 | 0.00 | 0.00 | 91 | 1014.3 |
| 20260903135612 | 79 | 327 | 2.0 | 3.0 | 0.00 | 0.00 | 0.00 | 92 | 1014.6 |
| 20260903135107 | 79 | 273 | 2.0 | 2.0 | 0.00 | 0.00 | 0.00 | 92 | 1014.5 |
| 20260903134605 | 79 | 289 | 1.0 | 4.0 | 0.00 | 0.00 | 0.00 | 92 | 1014.4 |
| 20260903134101 | 79 | 323 | 1.0 | 4.0 | 0.00 | 0.00 | 0.00 | 92 | 1014.5 |
| 20260903133558 | 79 | 309 | 3.0 | 4.0 | 0.00 | 0.00 | 0.00 | 92 | 1014.5 |
| 20260903133054 | 79 | 247 | 3.0 | 4.0 | 0.00 | 0.00 | 0.00 | 92 | 1014.2 |
| 20260903132549 | 79 | 241 | 3.0 | 3.0 | 0.00 | 0.00 | 0.00 | 92 | 1014.4 |
| 20260903132044 | 79 | 259 | 1.0 | 2.0 | 0.00 | 0.00 | 0.00 | 92 | 1014.3 |
| 20260903131544 | 79 | 289 | 1.0 | 2.0 | 0.00 | 0.00 | 0.00 | 92 | 1014.2 |
| 20260903131038 | 78 | 266 | 1.0 | 3.0 | 0.00 | 0.00 | 0.00 | 93 | 1013.9 |
| 20260903130532 | 78 | 291 | 0.0 | 2.0 | 0.00 | 0.00 | 0.00 | 93 | 1013.8 |
| 20260903130027 | 78 | 295 | 1.0 | 4.0 | 0.00 | 0.00 | 0.00 | 93 | 1013.9 |
| 20260903125525 | 78 | 235 | 2.0 | 4.0 | 0.00 | 0.00 | 0.00 | 93 | 1013.9 |
| 20260903125021 | 78 | 253 | 1.0 | 3.0 | 0.00 | 0.00 | 0.00 | 93 | 1013.9 |
| 20260903124515 | 78 | 248 | 2.0 | 2.0 | 0.00 | 0.00 | 0.00 | 93 | 1014.2 |
| 20260903124014 | 78 | 272 | 1.0 | 3.0 | 0.00 | 0.00 | 0.00 | 92 | 1014.0 |
| 20260903123509 | 78 | 290 | 4.0 | 4.0 | 0.00 | 0.00 | 0.00 | 92 | 1013.9 |
| 20260903123008 | 79 | 261 | 2.0 | 4.0 | 0.00 | 0.00 | 0.00 | 92 | 1013.8 |
| 20260903122508 | 79 | 262 | 1.0 | 2.0 | 0.00 | 0.00 | 0.00 | 92 | 1013.8 |
| 20260903122002 | 79 | 325 | 2.0 | 2.0 | 0.00 | 0.00 | 0.00 | 91 | 1013.7 |
| 20260903121457 | 79 | 242 | 1.0 | 3.0 | 0.00 | 0.00 | 0.00 | 91 | 1013.7 |
| 20260903120953 | 79 | 312 | 1.0 | 2.0 | 0.00 | 0.00 | 0.00 | 92 | 1013.6 |
| 20260903120451 | 78 | 310 | 0.0 | 2.0 | 0.00 | 0.00 | 0.00 | 92 | 1013.5 |
| 20260903115950 | 78 | 309 | 1.0 | 3.0 | 0.00 | 0.00 | 0.00 | 92 | 1013.5 |
| 20260903115450 | 78 | 269 | 0.0 | 2.0 | 0.00 | 0.00 | 0.00 | 92 | 1013.4 |
| 20260903114944 | 78 | 271 | 1.0 | 2.0 | 0.00 | 0.00 | 0.00 | 92 | 1013.5 |
| 20260903114440 | 78 | 346 | 0.0 | 2.0 | 0.00 | 0.00 | 0.00 | 92 | 1013.3 |
| 20260903113935 | 78 | 246 | 1.0 | 2.0 | 0.00 | 0.00 | 0.00 | 92 | 1013.1 |
| 20260903113432 | 78 | 274 | 2.0 | 2.0 | 0.00 | 0.00 | 0.00 | 92 | 1013.4 |
| 20260903112931 | 78 | 275 | 0.0 | 1.0 | 0.00 | 0.00 | 0.00 | 92 | 1013.6 |
| 20260903112427 | 78 | 321 | 0.0 | 2.0 | 0.00 | 0.00 | 0.00 | 92 | 1013.6 |
| 20260903111926 | 78 | 242 | 0.0 | 2.0 | 0.00 | 0.00 | 0.00 | 92 | 1013.5 |
| 20260903111421 | 78 | 269 | 0.0 | 3.0 | 0.00 | 0.00 | 0.00 | 92 | 1013.6 |
| 20260903110918 | 78 | 333 | 0.0 | 3.0 | 0.00 | 0.00 | 0.00 | 92 | 1013.7 |
| 20260903110413 | 78 | 255 | 2.0 | 3.0 | 0.00 | 0.00 | 0.00 | 92 | 1013.6 |
| 20260903105908 | 78 | 235 | 0.0 | 2.0 | 0.00 | 0.00 | 0.00 | 91 | 1013.7 |
| 20260903105403 | 78 | 264 | 0.0 | 2.0 | 0.00 | 0.00 | 0.00 | 91 | 1013.6 |
| 20260903104903 | 78 | 253 | 1.0 | 2.0 | 0.00 | 0.00 | 0.00 | 91 | 1013.3 |
| 20260903104357 | 78 | 275 | 2.0 | 3.0 | 0.00 | 0.00 | 0.00 | 91 | 1013.3 |
| 20260903103854 | 78 | 297 | 1.0 | 2.0 | 0.00 | 0.00 | 0.00 | 92 | 1013.2 |
| 20260903103350 | 78 | 319 | 0.0 | 2.0 | 0.00 | 0.00 | 0.00 | 92 | 1013.2 |
| 20260903102844 | 78 | 54 | 0.0 | 0.0 | 0.00 | 0.00 | 0.00 | 93 | 1013.1 |
| 20260903102338 | 78 | 345 | 0.0 | 1.0 | 0.00 | 0.00 | 0.00 | 92 | 1013.3 |
| 20260903101832 | 78 | 292 | 1.0 | 2.0 | 0.00 | 0.00 | 0.00 | 92 | 1013.2 |
| 20260903101327 | 78 | 275 | 0.0 | 2.0 | 0.00 | 0.00 | 0.00 | 93 | 1013.2 |
| 20260903100823 | 78 | 264 | 2.0 | 2.0 | 0.00 | 0.00 | 0.00 | 92 | 1013.2 |
| 20260903100317 | 78 | 295 | 0.0 | 2.0 | 0.00 | 0.00 | 0.00 | 92 | 1013.4 |
| 20260903095815 | 78 | 290 | 2.0 | 3.0 | 0.00 | 0.00 | 0.00 | 91 | 1013.1 |
| 20260903095309 | 78 | 305 | 1.0 | 4.0 | 0.00 | 0.00 | 0.00 | 91 | 1013.3 |
| 20260903094805 | 78 | 209 | 0.0 | 2.0 | 0.00 | 0.00 | 0.00 | 90 | 1013.4 |
| 20260903094304 | 78 | 8 | 0.0 | 4.0 | 0.00 | 0.00 | 0.00 | 90 | 1013.4 |
| 20260903093800 | 79 | 307 | 4.0 | 5.0 | 0.00 | 0.00 | 0.00 | 89 | 1013.4 |
| 20260903093255 | 79 | 274 | 2.0 | 4.0 | 0.00 | 0.00 | 0.00 | 87 | 1013.5 |
| 20260903092755 | 79 | 272 | 0.0 | 2.0 | 0.00 | 0.00 | 0.00 | 86 | 1013.3 |
| 20260903092250 | 79 | 286 | 0.0 | 2.0 | 0.00 | 0.00 | 0.00 | 86 | 1013.2 |
| 20260903091749 | 79 | 302 | 0.0 | 1.0 | 0.00 | 0.00 | 0.00 | 86 | 1013.2 |
| 20260903091243 | 79 | 286 | 0.0 | 2.0 | 0.00 | 0.00 | 0.00 | 86 | 1013.3 |
| 20260903090739 | 79 | 269 | 0.0 | 1.0 | 0.00 | 0.00 | 0.00 | 86 | 1013.1 |
| 20260903090233 | 79 | 131 | 1.0 | 2.0 | 0.00 | 0.00 | 0.00 | 86 | 1013.1 |
| 20260903085731 | 79 | 33 | 0.0 | 2.0 | 0.00 | 0.00 | 0.00 | 86 | 1013.0 |
| 20260903085226 | 79 | 143 | 1.0 | 2.0 | 0.00 | 0.00 | 0.00 | 86 | 1013.1 |
| 20260903084724 | 79 | 159 | 4.0 | 4.0 | 0.00 | 0.00 | 0.00 | 86 | 1012.9 |
| 20260903084219 | 79 | 205 | 0.0 | 2.0 | 0.00 | 0.00 | 0.00 | 87 | 1013.0 |
| 20260903083715 | 79 | 202 | 1.0 | 2.0 | 0.00 | 0.00 | 0.00 | 87 | 1013.2 |
| 20260903083215 | 79 | 265 | 1.0 | 2.0 | 0.00 | 0.00 | 0.00 | 87 | 1013.3 |
| 20260903082709 | 79 | 293 | 0.0 | 2.0 | 0.00 | 0.00 | 0.00 | 87 | 1013.0 |
| 20260903082205 | 79 | 315 | 0.0 | 2.0 | 0.00 | 0.00 | 0.00 | 87 | 1013.2 |
| 20260903081659 | 79 | 249 | 2.0 | 2.0 | 0.00 | 0.00 | 0.00 | 87 | 1012.9 |
| 20260903081155 | 79 | 211 | 2.0 | 2.0 | 0.00 | 0.00 | 0.00 | 88 | 1013.1 |
| 20260903080651 | 79 | 210 | 1.0 | 2.0 | 0.00 | 0.00 | 0.00 | 88 | 1012.9 |
| 20260903080149 | 79 | 81 | 0.0 | 3.0 | 0.00 | 0.00 | 0.00 | 89 | 1012.9 |
| 20260903075648 | 79 | 351 | 0.0 | 2.0 | 0.00 | 0.00 | 0.00 | 90 | 1013.0 |
| 20260903075143 | 79 | 272 | 1.0 | 1.0 | 0.00 | 0.00 | 0.00 | 91 | 1012.8 |
| 20260903074642 | 79 | 264 | 1.0 | 2.0 | 0.00 | 0.00 | 0.00 | 90 | 1013.0 |
| 20260903074137 | 79 | 279 | 1.0 | 2.0 | 0.00 | 0.00 | 0.00 | 90 | 1012.8 |
| 20260903073632 | 79 | 217 | 0.0 | 2.0 | 0.00 | 0.00 | 0.00 | 89 | 1013.0 |
| 20260903073127 | 79 | 237 | 1.0 | 2.0 | 0.00 | 0.00 | 0.00 | 88 | 1012.8 |
| 20260903072623 | 79 | 299 | 0.0 | 1.0 | 0.00 | 0.00 | 0.00 | 88 | 1012.9 |
| 20260903072119 | 79 | 157 | 0.0 | 1.0 | 0.00 | 0.00 | 0.00 | 88 | 1013.1 |
| 20260903071616 | 79 | 300 | 1.0 | 1.0 | 0.00 | 0.00 | 0.00 | 88 | 1013.0 |
| 20260903071111 | 79 | 269 | 0.0 | 1.0 | 0.00 | 0.00 | 0.00 | 88 | 1013.1 |
| 20260903070610 | 79 | 293 | 0.0 | 0.0 | 0.00 | 0.00 | 0.00 | 88 | 1013.0 |
| 20260903070107 | 79 | 106 | 0.0 | 1.0 | 0.00 | 0.00 | 0.00 | 88 | 1013.2 |
| 20260903065605 | 79 | 296 | 0.0 | 1.0 | 0.00 | 0.00 | 0.00 | 88 | 1013.0 |
| 20260903065100 | 79 | 229 | 0.0 | 2.0 | 0.00 | 0.00 | 0.00 | 88 | 1013.1 |
| 20260903064554 | 79 | 253 | 0.0 | 1.0 | 0.00 | 0.00 | 0.00 | 88 | 1013.0 |
| 20260903064049 | 79 | 147 | 0.0 | 1.0 | 0.00 | 0.00 | 0.00 | 88 | 1013.4 |
| 20260903063545 | 79 | 251 | 1.0 | 1.0 | 0.00 | 0.00 | 0.00 | 88 | 1013.2 |
| 20260903063040 | 79 | 104 | 0.0 | 1.0 | 0.00 | 0.00 | 0.00 | 88 | 1013.2 |
| 20260903062535 | 79 | 259 | 1.0 | 2.0 | 0.00 | 0.00 | 0.00 | 88 | 1013.3 |
| 20260903062031 | 79 | 255 | 0.0 | 1.0 | 0.00 | 0.00 | 0.00 | 88 | 1013.2 |
| 20260903061526 | 79 | 248 | 1.0 | 2.0 | 0.00 | 0.00 | 0.00 | 88 | 1013.0 |
| 20260903061020 | 79 | 260 | 1.0 | 2.0 | 0.00 | 0.00 | 0.00 | 88 | 1013.2 |
| 20260903060520 | 79 | 255 | 1.0 | 2.0 | 0.00 | 0.00 | 0.00 | 88 | 1013.3 |
| 20260903060016 | 79 | 234 | 0.0 | 6.0 | 0.00 | 0.00 | 0.00 | 87 | 1013.4 |
| 20260903055513 | 79 | 235 | 0.0 | 3.0 | 0.00 | 0.00 | 0.00 | 87 | 1013.4 |
| 20260903055012 | 79 | 266 | 2.0 | 4.0 | 0.00 | 0.00 | 0.00 | 87 | 1013.5 |
| 20260903054507 | 79 | 289 | 2.0 | 3.0 | 0.00 | 0.00 | 0.00 | 86 | 1013.6 |
| 20260903054003 | 79 | 26 | 0.0 | 4.0 | 0.00 | 0.00 | 0.00 | 85 | 1013.7 |
| 20260903053502 | 80 | 287 | 1.0 | 5.0 | 0.00 | 0.00 | 0.00 | 85 | 1013.6 |
| 20260903052959 | 80 | 240 | 4.0 | 4.0 | 0.00 | 0.00 | 0.00 | 85 | 1013.5 |
| 20260903052454 | 80 | 264 | 4.0 | 4.0 | 0.00 | 0.00 | 0.00 | 84 | 1013.6 |
| 20260903051950 | 80 | 235 | 3.0 | 4.0 | 0.00 | 0.00 | 0.00 | 83 | 1013.6 |
| 20260903051445 | 80 | 278 | 3.0 | 4.0 | 0.00 | 0.00 | 0.00 | 83 | 1013.5 |
| 20260903050941 | 80 | 291 | 2.0 | 4.0 | 0.00 | 0.00 | 0.00 | 83 | 1013.7 |
| 20260903050440 | 80 | 214 | 0.0 | 4.0 | 0.00 | 0.00 | 0.00 | 82 | 1013.7 |
| 20260903045940 | 80 | 275 | 3.0 | 8.0 | 0.00 | 0.31 | 0.31 | 82 | 1013.8 |
| 20260903045435 | 80 | 250 | 2.0 | 5.0 | 0.00 | 0.31 | 0.31 | 82 | 1013.9 |
| 20260903044932 | 80 | 251 | 2.0 | 4.0 | 0.00 | 0.31 | 0.31 | 81 | 1013.8 |
| 20260903044426 | 81 | 256 | 1.0 | 5.0 | 0.00 | 0.31 | 0.31 | 81 | 1013.8 |
| 20260903043923 | 81 | 271 | 2.0 | 5.0 | 0.00 | 0.31 | 0.31 | 80 | 1013.7 |
| 20260903043418 | 81 | 307 | 2.0 | 6.0 | 0.00 | 0.31 | 0.31 | 80 | 1013.7 |
| 20260903042916 | 81 | 261 | 4.0 | 6.0 | 0.00 | 0.31 | 0.31 | 79 | 1013.5 |
| 20260903042412 | 81 | 300 | 2.0 | 5.0 | 0.00 | 0.31 | 0.31 | 79 | 1013.5 |
| 20260903041908 | 82 | 226 | 4.0 | 5.0 | 0.00 | 0.31 | 0.31 | 78 | 1013.7 |
| 20260903041404 | 82 | 335 | 4.0 | 5.0 | 0.00 | 0.31 | 0.31 | 78 | 1013.8 |
| 20260903040859 | 82 | 276 | 2.0 | 5.0 | 0.00 | 0.31 | 0.31 | 78 | 1013.5 |
| 20260903040358 | 82 | 258 | 3.0 | 4.0 | 0.00 | 0.31 | 0.31 | 78 | 1013.8 |
| 20260903035854 | 82 | 254 | 3.0 | 6.0 | 0.00 | 0.31 | 0.31 | 77 | 1013.8 |
| 20260903035350 | 82 | 256 | 2.0 | 4.0 | 0.00 | 0.31 | 0.31 | 77 | 1013.7 |
| 20260903034845 | 82 | 262 | 2.0 | 5.0 | 0.00 | 0.31 | 0.31 | 77 | 1013.9 |
| 20260903034340 | 83 | 262 | 2.0 | 4.0 | 0.00 | 0.31 | 0.31 | 77 | 1013.6 |
| 20260903033835 | 83 | 250 | 3.0 | 6.0 | 0.00 | 0.31 | 0.31 | 76 | 1013.7 |
| 20260903033330 | 83 | 246 | 4.0 | 6.0 | 0.00 | 0.31 | 0.31 | 76 | 1013.6 |
| 20260903032824 | 83 | 267 | 3.0 | 6.0 | 0.00 | 0.31 | 0.31 | 76 | 1013.8 |
| 20260903032321 | 83 | 255 | 2.0 | 6.0 | 0.00 | 0.31 | 0.31 | 75 | 1013.8 |
| 20260903031816 | 83 | 268 | 2.0 | 4.0 | 0.00 | 0.31 | 0.31 | 75 | 1013.8 |
| 20260903031315 | 84 | 285 | 1.0 | 6.0 | 0.00 | 0.31 | 0.31 | 75 | 1013.7 |
| 20260903030811 | 84 | 278 | 5.0 | 6.0 | 0.00 | 0.31 | 0.31 | 74 | 1013.7 |
| 20260903030307 | 84 | 266 | 3.0 | 6.0 | 0.00 | 0.31 | 0.31 | 74 | 1013.7 |
| 20260903025802 | 84 | 264 | 1.0 | 8.0 | 0.00 | 0.31 | 0.31 | 73 | 1013.6 |
| 20260903025257 | 84 | 259 | 2.0 | 6.0 | 0.00 | 0.31 | 0.31 | 72 | 1013.5 |
| 20260903024752 | 84 | 243 | 2.0 | 4.0 | 0.00 | 0.31 | 0.31 | 73 | 1013.4 |
| 20260903024251 | 84 | 27 | 4.0 | 5.0 | 0.00 | 0.31 | 0.31 | 72 | 1013.4 |
| 20260903023747 | 85 | 253 | 5.0 | 5.0 | 0.00 | 0.31 | 0.31 | 72 | 1013.5 |
| 20260903023242 | 85 | 256 | 4.0 | 5.0 | 0.00 | 0.31 | 0.31 | 72 | 1013.3 |
| 20260903022737 | 85 | 279 | 2.0 | 4.0 | 0.00 | 0.31 | 0.31 | 72 | 1013.3 |
| 20260903022236 | 85 | 280 | 6.0 | 6.0 | 0.00 | 0.31 | 0.31 | 71 | 1013.4 |
| 20260903021730 | 85 | 275 | 4.0 | 5.0 | 0.00 | 0.31 | 0.31 | 71 | 1013.3 |
| 20260903021226 | 86 | 191 | 2.0 | 6.0 | 0.00 | 0.31 | 0.31 | 70 | 1013.2 |
| 20260903020725 | 86 | 9 | 1.0 | 5.0 | 0.00 | 0.31 | 0.31 | 71 | 1013.0 |
| 20260903020220 | 86 | 244 | 2.0 | 2.0 | 0.00 | 0.31 | 0.31 | 71 | 1013.2 |
| 20260903015716 | 86 | 279 | 1.0 | 4.0 | 0.00 | 0.31 | 0.31 | 71 | 1013.0 |
| 20260903015211 | 86 | 282 | 1.0 | 3.0 | 0.00 | 0.31 | 0.31 | 74 | 1012.8 |
| 20260903014707 | 86 | 245 | 1.0 | 4.0 | 0.00 | 0.31 | 0.31 | 71 | 1012.8 |
| 20260903014205 | 86 | 286 | 1.0 | 5.0 | 0.00 | 0.31 | 0.31 | 71 | 1012.6 |
| 20260903013700 | 86 | 320 | 2.0 | 4.0 | 0.00 | 0.31 | 0.31 | 71 | 1012.7 |
| 20260903013200 | 86 | 259 | 2.0 | 2.0 | 0.00 | 0.31 | 0.31 | 72 | 1012.6 |
| 20260903012658 | 86 | 271 | 2.0 | 4.0 | 0.00 | 0.31 | 0.31 | 72 | 1012.5 |
| 20260903012158 | 86 | 258 | 2.0 | 3.0 | 0.00 | 0.31 | 0.31 | 73 | 1012.4 |
| 20260903011652 | 86 | 271 | 0.0 | 3.0 | 0.00 | 0.31 | 0.31 | 74 | 1012.3 |
| 20260903011146 | 84 | 288 | 2.0 | 4.0 | 0.00 | 0.31 | 0.31 | 75 | 1012.4 |
| 20260903010641 | 81 | 254 | 0.0 | 2.0 | 0.00 | 0.31 | 0.31 | 86 | 1012.3 |
| 20260903010140 | 80 | 280 | 0.0 | 1.0 | 0.00 | 0.31 | 0.31 | 92 | 1011.9 |
| 20260903005635 | 79 | 240 | 0.0 | 1.0 | 0.00 | 0.31 | 0.31 | 96 | 1012.1 |
| 20260903005131 | 78 | 249 | 1.0 | 2.0 | 0.00 | 0.31 | 0.31 | 99 | 1012.2 |
| 20260903004631 | 79 | 262 | 1.0 | 2.0 | 0.00 | 0.31 | 0.31 | 99 | 1012.2 |
| 20260903004126 | 79 | 260 | 1.0 | 2.0 | 0.00 | 0.31 | 0.31 | 99 | 1012.1 |
| 20260903003621 | 80 | 242 | 1.0 | 2.0 | 0.00 | 0.31 | 0.31 | 99 | 1012.1 |
| 20260903003117 | 80 | 244 | 1.0 | 1.0 | 0.00 | 0.31 | 0.31 | 99 | 1012.0 |
| 20260903002612 | 80 | 260 | 0.0 | 1.0 | 0.00 | 0.31 | 0.31 | 99 | 1012.1 |
| 20260903002112 | 81 | 284 | 0.0 | 1.0 | 0.00 | 0.31 | 0.31 | 99 | 1012.1 |
| 20260903001607 | 81 | 250 | 1.0 | 1.0 | 0.00 | 0.31 | 0.31 | 99 | 1011.9 |
| 20260903001100 | 81 | 269 | 1.0 | 1.0 | 0.00 | 0.31 | 0.31 | 99 | 1011.9 |
| 20260903000556 | 80 | 264 | 1.0 | 2.0 | 0.00 | 0.31 | 0.31 | 99 | 1011.8 |
| 20260903000055 | 80 | 237 | 1.0 | 1.0 | 0.00 | 0.31 | 0.31 | 99 | 1011.8 |
| 20260902235549 | 80 | 267 | 2.0 | 2.0 | 0.00 | 0.31 | 0.31 | 99 | 1012.1 |
| 20260902235044 | 81 | 264 | 2.0 | 2.0 | 0.00 | 0.31 | 0.31 | 99 | 1011.9 |
| 20260902234539 | 80 | 273 | 0.0 | 2.0 | 0.00 | 0.31 | 0.31 | 99 | 1011.9 |
| 20260902234037 | 81 | 257 | 1.0 | 2.0 | 0.00 | 0.31 | 0.31 | 99 | 1011.9 |
| 20260902233532 | 81 | 295 | 1.0 | 2.0 | 0.00 | 0.31 | 0.31 | 99 | 1011.8 |
| 20260902233026 | 80 | 290 | 0.0 | 1.0 | 0.00 | 0.31 | 0.31 | 99 | 1011.9 |
| 20260902232526 | 80 | 193 | 0.0 | 1.0 | 0.00 | 0.31 | 0.31 | 99 | 1011.9 |
| 20260902232020 | 80 | 263 | 1.0 | 2.0 | 0.00 | 0.31 | 0.31 | 99 | 1011.9 |
| 20260902231515 | 80 | 261 | 0.0 | 1.0 | 0.00 | 0.31 | 0.31 | 99 | 1011.8 |
| 20260902231009 | 78 | 272 | 1.0 | 2.0 | 0.00 | 0.31 | 0.31 | 99 | 1011.8 |
| 20260902230509 | 78 | 274 | 1.0 | 2.0 | 0.00 | 0.31 | 0.31 | 99 | 1011.9 |
| 20260902230003 | 78 | 137 | 1.0 | 3.0 | 0.90 | 0.31 | 0.31 | 95 | 1011.8 |
| 20260902225458 | 78 | 56 | 3.0 | 6.0 | 1.79 | 0.31 | 0.31 | 92 | 1011.8 |
| 20260902224957 | 80 | 264 | 10.0 | 15.0 | 0.73 | 0.12 | 0.12 | 91 | 1013.5 |
| 20260902224450 | 88 | 263 | 5.0 | 12.0 | 0.02 | 0.00 | 0.00 | 75 | 1012.2 |
| 20260902223947 | 98 | 237 | 5.0 | 15.0 | 0.00 | 0.00 | 0.00 | 52 | 1011.6 |
| 20260902223442 | 100 | 254 | 4.0 | 5.0 | 0.00 | 0.00 | 0.00 | 45 | 1011.4 |
| 20260902222942 | 100 | 253 | 3.0 | 5.0 | 0.00 | 0.00 | 0.00 | 45 | 1011.4 |
| 20260902222440 | 102 | 287 | 2.0 | 6.0 | 0.00 | 0.00 | 0.00 | 43 | 1011.5 |
| 20260902221935 | 102 | 271 | 5.0 | 6.0 | 0.00 | 0.00 | 0.00 | 43 | 1011.5 |
| 20260902221434 | 101 | 286 | 2.0 | 6.0 | 0.00 | 0.00 | 0.00 | 44 | 1011.5 |
| 20260902220929 | 101 | 261 | 4.0 | 4.0 | 0.00 | 0.00 | 0.00 | 44 | 1011.5 |
| 20260902220429 | 101 | 236 | 3.0 | 5.0 | 0.00 | 0.00 | 0.00 | 44 | 1011.5 |
| 20260902215918 | 104 | 247 | 4.0 | 4.0 | 0.00 | 0.00 | 0.00 | 42 | 1011.6 |
| 20260902215414 | 104 | 290 | 5.0 | 5.0 | 0.00 | 0.00 | 0.00 | 43 | 1011.4 |
| 20260902214910 | 102 | 244 | 4.0 | 4.0 | 0.00 | 0.00 | 0.00 | 43 | 1011.5 |
| 20260902214408 | 101 | 264 | 3.0 | 5.0 | 0.00 | 0.00 | 0.00 | 44 | 1011.8 |
| 20260902213903 | 102 | 273 | 2.0 | 6.0 | 0.00 | 0.00 | 0.00 | 44 | 1011.9 |
| 20260902213400 | 102 | 175 | 4.0 | 7.0 | 0.00 | 0.00 | 0.00 | 43 | 1011.8 |
| 20260902212858 | 102 | 240 | 3.0 | 8.0 | 0.00 | 0.00 | 0.00 | 44 | 1011.9 |
| 20260902212354 | 102 | 248 | 2.0 | 5.0 | 0.00 | 0.00 | 0.00 | 43 | 1012.1 |
| 20260902211850 | 104 | 260 | 4.0 | 5.0 | 0.00 | 0.00 | 0.00 | 42 | 1012.2 |
| 20260902211346 | 102 | 266 | 3.0 | 6.0 | 0.00 | 0.00 | 0.00 | 42 | 1012.0 |
| 20260902210841 | 101 | 274 | 4.0 | 5.0 | 0.00 | 0.00 | 0.00 | 45 | 1012.0 |
| 20260902210335 | 101 | 279 | 3.0 | 7.0 | 0.00 | 0.00 | 0.00 | 44 | 1011.9 |
| 20260902205833 | 102 | 282 | 2.0 | 6.0 | 0.00 | 0.00 | 0.00 | 43 | 1012.0 |
| 20260902205328 | 102 | 258 | 6.0 | 6.0 | 0.00 | 0.00 | 0.00 | 44 | 1012.2 |
| 20260902204824 | 102 | 276 | 3.0 | 6.0 | 0.00 | 0.00 | 0.00 | 43 | 1012.3 |
| 20260902204318 | 102 | 261 | 2.0 | 5.0 | 0.00 | 0.00 | 0.00 | 44 | 1012.4 |
| 20260902203814 | 101 | 269 | 5.0 | 6.0 | 0.00 | 0.00 | 0.00 | 44 | 1012.5 |
| 20260902203309 | 101 | 273 | 4.0 | 6.0 | 0.00 | 0.00 | 0.00 | 44 | 1012.6 |
| 20260902202808 | 101 | 287 | 3.0 | 6.0 | 0.00 | 0.00 | 0.00 | 43 | 1012.6 |
| 20260902202306 | 102 | 253 | 6.0 | 9.0 | 0.00 | 0.00 | 0.00 | 43 | 1012.7 |
| 20260902201801 | 101 | 170 | 3.0 | 4.0 | 0.00 | 0.00 | 0.00 | 44 | 1012.8 |
| 20260902201300 | 103 | 264 | 2.0 | 4.0 | 0.00 | 0.00 | 0.00 | 42 | 1012.9 |
| 20260902200755 | 102 | 279 | 2.0 | 4.0 | 0.00 | 0.00 | 0.00 | 44 | 1012.9 |
| 20260902200251 | 100 | 300 | 2.0 | 4.0 | 0.00 | 0.00 | 0.00 | 45 | 1013.1 |
| 20260902195746 | 100 | 245 | 3.0 | 6.0 | 0.00 | 0.00 | 0.00 | 45 | 1013.2 |
| 20260902195245 | 101 | 272 | 3.0 | 7.0 | 0.00 | 0.00 | 0.00 | 45 | 1013.4 |
| 20260902194740 | 101 | 294 | 3.0 | 5.0 | 0.00 | 0.00 | 0.00 | 44 | 1013.1 |
| 20260902194235 | 101 | 268 | 5.0 | 5.0 | 0.00 | 0.00 | 0.00 | 44 | 1013.4 |
| 20260902193731 | 100 | 242 | 1.0 | 6.0 | 0.00 | 0.00 | 0.00 | 44 | 1013.3 |
| 20260902193226 | 101 | 314 | 5.0 | 5.0 | 0.00 | 0.00 | 0.00 | 44 | 1013.5 |
| 20260902192725 | 101 | 289 | 3.0 | 6.0 | 0.00 | 0.00 | 0.00 | 43 | 1013.5 |
| 20260902192224 | 101 | 275 | 3.0 | 6.0 | 0.00 | 0.00 | 0.00 | 43 | 1014.0 |
| 20260902191718 | 101 | 296 | 1.0 | 5.0 | 0.00 | 0.00 | 0.00 | 45 | 1014.0 |
| 20260902191213 | 100 | 266 | 2.0 | 5.0 | 0.00 | 0.00 | 0.00 | 44 | 1013.6 |
| 20260902190708 | 99 | 282 | 2.0 | 4.0 | 0.00 | 0.00 | 0.00 | 47 | 1013.8 |
| 20260902190203 | 100 | 261 | 2.0 | 4.0 | 0.00 | 0.00 | 0.00 | 45 | 1014.0 |
| 20260902185659 | 100 | 260 | 1.0 | 4.0 | 0.00 | 0.00 | 0.00 | 45 | 1014.1 |
| 20260902185155 | 99 | 229 | 2.0 | 5.0 | 0.00 | 0.00 | 0.00 | 46 | 1014.0 |
| 20260902184649 | 100 | 283 | 3.0 | 4.0 | 0.00 | 0.00 | 0.00 | 45 | 1014.1 |
| 20260902184144 | 99 | 276 | 3.0 | 8.0 | 0.00 | 0.00 | 0.00 | 47 | 1014.3 |
| 20260902183640 | 98 | 284 | 6.0 | 6.0 | 0.00 | 0.00 | 0.00 | 49 | 1014.4 |
| 20260902183137 | 98 | 272 | 4.0 | 7.0 | 0.00 | 0.00 | 0.00 | 49 | 1014.6 |
| 20260902182632 | 98 | 286 | 2.0 | 4.0 | 0.00 | 0.00 | 0.00 | 49 | 1014.7 |
| 20260902182130 | 97 | 266 | 1.0 | 5.0 | 0.00 | 0.00 | 0.00 | 49 | 1014.7 |
| 20260902181625 | 97 | 276 | 3.0 | 4.0 | 0.00 | 0.00 | 0.00 | 52 | 1014.9 |
| 20260902181124 | 97 | 216 | 2.0 | 5.0 | 0.00 | 0.00 | 0.00 | 52 | 1015.1 |
| 20260902180619 | 97 | 320 | 2.0 | 6.0 | 0.00 | 0.00 | 0.00 | 52 | 1015.1 |
| 20260902180116 | 97 | 255 | 2.0 | 4.0 | 0.00 | 0.00 | 0.00 | 52 | 1015.2 |
| 20260902175615 | 97 | 39 | 2.0 | 4.0 | 0.00 | 0.00 | 0.00 | 52 | 1015.4 |
| 20260902175110 | 97 | 257 | 4.0 | 8.0 | 0.00 | 0.00 | 0.00 | 53 | 1015.6 |
| 20260902174606 | 96 | 282 | 2.0 | 5.0 | 0.00 | 0.00 | 0.00 | 53 | 1015.4 |
| 20260902174101 | 97 | 256 | 2.0 | 4.0 | 0.00 | 0.00 | 0.00 | 53 | 1015.5 |
| 20260902173556 | 96 | 276 | 1.0 | 6.0 | 0.00 | 0.00 | 0.00 | 54 | 1015.6 |
| 20260902173051 | 96 | 269 | 4.0 | 5.0 | 0.00 | 0.00 | 0.00 | 52 | 1015.6 |
| 20260902172545 | 96 | 304 | 2.0 | 6.0 | 0.00 | 0.00 | 0.00 | 54 | 1015.7 |
| 20260902172040 | 96 | 287 | 4.0 | 4.0 | 0.00 | 0.00 | 0.00 | 54 | 1015.9 |
| 20260902171536 | 96 | 264 | 3.0 | 5.0 | 0.00 | 0.00 | 0.00 | 54 | 1016.0 |
| 20260902171031 | 95 | 282 | 2.0 | 6.0 | 0.00 | 0.00 | 0.00 | 56 | 1015.9 |
| 20260902170526 | 95 | 281 | 2.0 | 5.0 | 0.00 | 0.00 | 0.00 | 56 | 1016.0 |
| 20260902170022 | 95 | 255 | 4.0 | 5.0 | 0.00 | 0.00 | 0.00 | 56 | 1016.1 |
| 20260902165521 | 94 | 255 | 2.0 | 3.0 | 0.00 | 0.00 | 0.00 | 58 | 1016.3 |
| 20260902165016 | 95 | 239 | 4.0 | 11.0 | 0.00 | 0.00 | 0.00 | 57 | 1016.4 |
| 20260902164511 | 95 | 256 | 1.0 | 4.0 | 0.00 | 0.00 | 0.00 | 58 | 1016.4 |
| 20260902164010 | 93 | 277 | 1.0 | 3.0 | 0.00 | 0.00 | 0.00 | 59 | 1016.4 |
| 20260902163506 | 93 | 249 | 2.0 | 4.0 | 0.00 | 0.00 | 0.00 | 61 | 1016.5 |
| 20260902163004 | 92 | 315 | 0.0 | 3.0 | 0.00 | 0.00 | 0.00 | 62 | 1016.5 |
| 20260902162459 | 93 | 319 | 5.0 | 5.0 | 0.00 | 0.00 | 0.00 | 59 | 1016.6 |
| 20260902161959 | 93 | 275 | 3.0 | 6.0 | 0.00 | 0.00 | 0.00 | 59 | 1016.5 |
| 20260902161454 | 92 | 262 | 4.0 | 4.0 | 0.00 | 0.00 | 0.00 | 62 | 1016.5 |
| 20260902160949 | 93 | 248 | 3.0 | 5.0 | 0.00 | 0.00 | 0.00 | 60 | 1016.4 |
| 20260902160445 | 93 | 264 | 3.0 | 5.0 | 0.00 | 0.00 | 0.00 | 61 | 1016.5 |
| 20260902155942 | 93 | 23 | 0.0 | 2.0 | 0.00 | 0.00 | 0.00 | 60 | 1016.6 |
| 20260902155438 | 93 | 13 | 2.0 | 2.0 | 0.00 | 0.00 | 0.00 | 61 | 1016.5 |
| 20260902154931 | 91 | 289 | 3.0 | 4.0 | 0.00 | 0.00 | 0.00 | 63 | 1016.4 |
| 20260902154427 | 92 | 293 | 0.0 | 4.0 | 0.00 | 0.00 | 0.00 | 62 | 1016.6 |
| 20260902153927 | 91 | 267 | 4.0 | 5.0 | 0.00 | 0.00 | 0.00 | 62 | 1016.7 |
| 20260902153426 | 90 | 176 | 1.0 | 2.0 | 0.00 | 0.00 | 0.00 | 64 | 1016.5 |
| 20260902152921 | 91 | 294 | 2.0 | 5.0 | 0.00 | 0.00 | 0.00 | 63 | 1016.6 |